Flag for Paraguay Weather past 2 weeks in Asuncion, Paraguay

Now
61 °F

Thunderstorms. Mostly cloudy.


Feels Like: 61 °F
Forecast: N/A
Wind: 16 mph from Southwest

Location: Asuncion / Aeropuerto

Current Time: Jul 23, 2014 at 5:45:24 PM

Latest Report: Jul 23, 2014 at 5:00 PM


Visibility: 4 mi

Pressure: 29.77 "Hg

Humidity: 94%

Dew point: 59 °F

Location of AsuncionLocation

Historic Weather in Asuncion — Graph

°F

Asuncion temperature yesterday

Maximum temperature yesterday: 81 °F (at 12:00 PM)
Minimum temperature yesterday: 68 °F (at 2:00 AM)
Average temperature yesterday: 73 °F

Past Weeks' High & Low Weather Summary

 TemperatureHumidityPressure
High84 °F (Jul 16, 3:00 PM)100% (Jul 9, 2:00 AM)30.36 "Hg (Jul 9, 2:00 AM)
Low43 °F (Jul 14, 3:00 AM)33% (Jul 18, 3:00 PM)29.68 "Hg (Jul 23, 12:00 PM)
Average67 °F75%30.04 "Hg
* Reported Jul 8 4:00 PM — Jul 23 4:00 PM, Asuncion, Weather by CustomWeather, © 2014

Note: Actual official high and low records may vary slightly from our data, if they occured in-between our weather recording intervals... More about our weather records

Advertising

Asuncion weather history for previous 24 hours

 ConditionsComfort  
Time TempWeatherWind HumidityBarometerVisibility
4:00 PM
Jul 23
61 °FDrizzle. Low clouds.18 mph94%29.74 "HgN/A
3:00 PM63 °FDrizzle. Mostly cloudy.18 mph94%29.68 "Hg5 mi
2:00 PM63 °FDrizzle. Mostly cloudy.16 mph94%29.68 "Hg5 mi
1:00 PM64 °FRain. Mostly cloudy.14 mph94%29.68 "Hg5 mi
12:00 PM66 °FRain. Mostly cloudy.15 mph94%29.68 "HgN/A
11:00 AM73 °FLight rain. Mostly cloudy.6 mph89%29.71 "HgN/A
10:00 AM75 °FPartly sunny.5 mph83%29.71 "HgN/A
9:00 AM75 °FPartly sunny.5 mph83%29.71 "HgN/A
8:30 AM73 °FPartly sunny.5 mph89%29.71 "HgN/A
8:00 AM72 °FPartly sunny.No wind88%29.74 "HgN/A
7:30 AM72 °FPartly sunny.No wind88%29.74 "HgN/A
7:00 AM72 °FPartly sunny.3 mph88%29.74 "HgN/A
6:00 AM70 °FThunderstorms. Mostly cloudy.No wind88%29.74 "HgN/A
5:00 AM70 °FThunderstorms. Mostly cloudy.N/A88%29.71 "HgN/A
4:00 AM72 °FThunderstorms. Mostly cloudy.9 mph88%29.71 "HgN/A
1:00 AM72 °FPassing clouds.3 mph83%29.74 "HgN/A
12:00 AM73 °FThunderstorms. Passing clouds.7 mph74%29.74 "HgN/A
11:00 PM
Jul 22
75 °FThunderstorms. Passing clouds.12 mph61%29.74 "HgN/A
10:00 PM75 °FThunderstorms. Passing clouds.10 mph57%29.77 "HgN/A
9:00 PM77 °FThunderstorms. Passing clouds.10 mph54%29.74 "HgN/A
8:00 PM77 °FThunderstorms. Passing clouds.7 mph54%29.74 "HgN/A
Weather by CustomWeather, © 2014

See weather overviewHow to use our weather pages